Location: Unspecified
(48.8656°N, 0.0000°E)
Time: 06:09:44
(UTC+00:00)

SR - Pass Details

Date: 03 July 2019
Orbit: 575 x 881 km, 66.7° (Epoch: 12 October)

Event Time Altitude Azimuth Distance (km) Brightness Sun altitude
Rises 02:32:05 0° 248° (WSW) 2,785 - -10.9°
Exits shadow 02:33:56 - 257° (WSW) 2,106 ? -10.8°
Reaches altitude 10° 02:34:32 10° 261° (W) 1,903 ? -10.7°
Maximum altitude 02:38:11 27° 320° (NW) 1,163 ? -10.4°
Drops below altitude 10° 02:42:00 10° 19° (NNE) 1,999 ? -10.0°
Sets 02:44:39 0° 32° (NNE) 2,957 ? -9.7°
